Time,TemperatureF,DewpointF,PressureIn,WindDirection,WindDirectionDegrees,WindSpeedMPH,WindSpeedGustMPH,Humidity,HourlyPrecipIn,Conditions,Clouds,dailyrainin,SoftwareType,DateUTC
2013-08-22 00:10:00,69.5,58.0,29.99,NE,44,3.0,5.0,67,0.00,,,0.00,weatherlink.com 1.10,2013-08-22 05:10:00,
2013-08-22 00:25:00,69.4,58.0,30.00,NE,34,5.0,5.0,67,0.00,,,0.00,weatherlink.com 1.10,2013-08-22 05:25:00,
2013-08-22 00:40:00,69.2,58.0,30.01,NE,39,5.0,5.0,68,0.00,,,0.00,weatherlink.com 1.10,2013-08-22 05:40:00,
2013-08-22 00:55:00,67.6,58.0,30.01,NNE,29,5.0,6.0,72,0.00,,,0.00,weatherlink.com 1.10,2013-08-22 05:55:00,
2013-08-22 01:10:00,67.6,58.0,30.00,NNE,31,7.0,8.0,71,0.00,,,0.00,weatherlink.com 1.10,2013-08-22 06:10:00,
2013-08-22 01:25:00,67.7,58.0,30.00,NE,34,7.0,9.0,71,0.00,,,0.00,weatherlink.com 1.10,2013-08-22 06:25:00,
2013-08-22 01:40:00,68.1,58.0,30.01,NE,49,5.0,8.0,70,0.00,,,0.00,weatherlink.com 1.10,2013-08-22 06:40:00,
2013-08-22 01:55:00,67.6,58.0,30.02,NE,39,5.0,7.0,71,0.00,,,0.00,weatherlink.com 1.10,2013-08-22 06:55:00,
2013-08-22 02:10:00,67.1,58.0,30.02,NE,39,4.0,6.0,72,0.00,,,0.00,weatherlink.com 1.10,2013-08-22 07:10:00,
2013-08-22 02:25:00,66.9,58.0,30.02,NNE,29,3.0,4.0,72,0.00,,,0.00,weatherlink.com 1.10,2013-08-22 07:25:00,
2013-08-22 02:40:00,66.7,57.0,30.02,NE,34,7.0,8.0,72,0.00,,,0.00,weatherlink.com 1.10,2013-08-22 07:40:00,
2013-08-22 02:55:00,66.2,57.0,30.02,NE,42,5.0,7.0,72,0.00,,,0.00,weatherlink.com 1.10,2013-08-22 07:55:00,
2013-08-22 03:10:00,65.3,57.0,30.03,NE,39,5.0,5.0,75,0.00,,,0.00,weatherlink.com 1.10,2013-08-22 08:10:00,
2013-08-22 03:25:00,65.1,57.0,30.03,NE,39,5.0,6.0,74,0.00,,,0.00,weatherlink.com 1.10,2013-08-22 08:25:00,
2013-08-22 03:40:00,64.4,56.0,30.04,NE,43,6.0,6.0,75,0.00,,,0.00,weatherlink.com 1.10,2013-08-22 08:40:00,
2013-08-22 03:55:00,64.0,57.0,30.05,NE,34,7.0,7.0,77,0.00,,,0.00,weatherlink.com 1.10,2013-08-22 08:55:00,
2013-08-22 04:10:00,63.6,57.0,30.05,NNE,25,6.0,8.0,79,0.00,,,0.00,weatherlink.com 1.10,2013-08-22 09:10:00,
2013-08-22 04:26:00,63.3,57.0,30.06,NNE,33,6.0,7.0,79,0.00,,,0.00,weatherlink.com 1.10,2013-08-22 09:26:00,
2013-08-22 04:41:00,62.9,56.0,30.06,NNE,31,9.0,10.0,79,0.00,,,0.00,weatherlink.com 1.10,2013-08-22 09:41:00,
2013-08-22 04:56:00,62.7,56.0,30.06,NNE,23,10.0,10.0,78,0.00,,,0.00,weatherlink.com 1.10,2013-08-22 09:56:00,
2013-08-22 05:11:00,63.5,55.0,30.06,NE,39,11.0,15.0,73,0.00,,,0.00,weatherlink.com 1.10,2013-08-22 10:11:00,
2013-08-22 05:26:00,63.7,54.0,30.07,NE,41,13.0,16.0,70,0.00,,,0.00,weatherlink.com 1.10,2013-08-22 10:26:00,
2013-08-22 05:41:00,63.6,53.0,30.07,NNE,32,11.0,13.0,68,0.00,,,0.00,weatherlink.com 1.10,2013-08-22 10:41:00,
2013-08-22 07:41:00,64.2,49.0,30.09,NE,47,9.0,14.0,59,0.00,,,0.00,weatherlink.com 1.10,2013-08-22 12:41:00,
2013-08-22 07:56:00,65.0,50.0,30.10,ENE,57,6.0,10.0,59,0.00,,,0.00,weatherlink.com 1.10,2013-08-22 12:56:00,
2013-08-22 08:11:00,64.6,50.0,30.10,NE,51,11.0,11.0,60,0.00,,,0.00,weatherlink.com 1.10,2013-08-22 13:11:00,
2013-08-22 08:26:00,65.1,50.0,30.10,NE,53,8.0,11.0,58,0.00,,,0.00,weatherlink.com 1.10,2013-08-22 13:26:00,
2013-08-22 08:41:00,65.9,50.0,30.11,ENE,72,7.0,10.0,57,0.00,,,0.00,weatherlink.com 1.10,2013-08-22 13:41:00,
2013-08-22 08:56:00,65.9,50.0,30.11,ENE,60,9.0,14.0,57,0.00,,,0.00,weatherlink.com 1.10,2013-08-22 13:56:00,
2013-08-22 09:11:00,66.1,51.0,30.11,NE,53,6.0,9.0,58,0.00,,,0.00,weatherlink.com 1.10,2013-08-22 14:11:00,
2013-08-22 09:26:00,67.7,51.0,30.11,NE,39,8.0,10.0,56,0.00,,,0.00,weatherlink.com 1.10,2013-08-22 14:26:00,
2013-08-22 09:41:00,68.6,51.0,30.11,NE,49,10.0,14.0,53,0.00,,,0.00,weatherlink.com 1.10,2013-08-22 14:41:00,
2013-08-22 09:56:00,69.5,50.0,30.11,NE,51,12.0,13.0,51,0.00,,,0.00,weatherlink.com 1.10,2013-08-22 14:56:00,
2013-08-22 10:11:00,70.3,51.0,30.11,NE,45,14.0,16.0,51,0.00,,,0.00,weatherlink.com 1.10,2013-08-22 15:11:00,
2013-08-22 10:26:00,71.1,50.0,30.11,NE,49,8.0,15.0,47,0.00,,,0.00,weatherlink.com 1.10,2013-08-22 15:26:00,
2013-08-22 10:41:00,72.2,50.0,30.11,NE,47,13.0,16.0,46,0.00,,,0.00,weatherlink.com 1.10,2013-08-22 15:41:00,
2013-08-22 10:56:00,72.7,49.0,30.11,NE,45,13.0,16.0,43,0.00,,,0.00,weatherlink.com 1.10,2013-08-22 15:56:00,
2013-08-22 11:12:00,73.7,48.0,30.11,NE,43,13.0,17.0,40,0.00,,,0.00,weatherlink.com 1.10,2013-08-22 16:12:00,
2013-08-22 11:27:00,74.0,47.0,30.11,ENE,63,11.0,14.0,38,0.00,,,0.00,weatherlink.com 1.10,2013-08-22 16:27:00,
2013-08-22 11:42:00,75.4,48.0,30.11,NE,56,10.0,14.0,38,0.00,,,0.00,weatherlink.com 1.10,2013-08-22 16:42:00,
2013-08-22 11:57:00,76.0,49.0,30.10,NE,39,11.0,15.0,39,0.00,,,0.00,weatherlink.com 1.10,2013-08-22 16:57:00,
2013-08-22 12:12:00,75.9,47.0,30.10,NNE,33,9.0,14.0,36,0.00,,,0.00,weatherlink.com 1.10,2013-08-22 17:12:00,
2013-08-22 12:27:00,76.6,48.0,30.10,NE,46,17.0,17.0,37,0.00,,,0.00,weatherlink.com 1.10,2013-08-22 17:27:00,
2013-08-22 12:42:00,77.1,48.0,30.09,NNE,32,12.0,15.0,36,0.00,,,0.00,weatherlink.com 1.10,2013-08-22 17:42:00,
2013-08-22 12:57:00,76.9,49.0,30.09,NE,55,9.0,15.0,38,0.00,,,0.00,weatherlink.com 1.10,2013-08-22 17:57:00,
2013-08-22 13:12:00,77.6,49.0,30.09,NNE,30,15.0,16.0,37,0.00,,,0.00,weatherlink.com 1.10,2013-08-22 18:12:00,
2013-08-22 13:27:00,77.9,47.0,30.09,NE,47,9.0,15.0,33,0.00,,,0.00,weatherlink.com 1.10,2013-08-22 18:27:00,
2013-08-22 13:42:00,79.2,49.0,30.09,NNE,22,11.0,12.0,35,0.00,,,0.00,weatherlink.com 1.10,2013-08-22 18:42:00,
2013-08-22 13:57:00,78.6,49.0,30.09,ENE,57,9.0,14.0,36,0.00,,,0.00,weatherlink.com 1.10,2013-08-22 18:57:00,
2013-08-22 14:12:00,79.2,46.0,30.09,NE,39,9.0,15.0,31,0.00,,,0.00,weatherlink.com 1.10,2013-08-22 19:12:00,
2013-08-22 14:27:00,79.7,47.0,30.09,NE,36,6.0,14.0,32,0.00,,,0.00,weatherlink.com 1.10,2013-08-22 19:27:00,
2013-08-22 14:42:00,79.7,49.0,30.08,ENE,70,7.0,10.0,34,0.00,,,0.00,weatherlink.com 1.10,2013-08-22 19:42:00,
2013-08-22 14:57:00,79.9,48.0,30.08,NE,47,9.0,10.0,33,0.00,,,0.00,weatherlink.com 1.10,2013-08-22 19:57:00,
2013-08-22 15:12:00,79.7,49.0,30.08,ENE,60,8.0,11.0,34,0.00,,,0.00,weatherlink.com 1.10,2013-08-22 20:12:00,
2013-08-22 15:27:00,80.3,50.0,30.08,ENE,59,5.0,9.0,35,0.00,,,0.00,weatherlink.com 1.10,2013-08-22 20:27:00,
2013-08-22 15:42:00,80.3,48.0,30.08,ENE,68,7.0,9.0,32,0.00,,,0.00,weatherlink.com 1.10,2013-08-22 20:42:00,
2013-08-22 15:57:00,80.8,49.0,30.08,NE,35,8.0,9.0,33,0.00,,,0.00,weatherlink.com 1.10,2013-08-22 20:57:00,
2013-08-22 16:12:00,80.8,51.0,30.07,NNE,28,5.0,12.0,35,0.00,,,0.00,weatherlink.com 1.10,2013-08-22 21:12:00,
2013-08-22 16:27:00,80.9,52.0,30.07,NNE,27,6.0,10.0,37,0.00,,,0.00,weatherlink.com 1.10,2013-08-22 21:27:00,
2013-08-22 16:42:00,80.7,52.0,30.07,East,88,1.0,8.0,37,0.00,,,0.00,weatherlink.com 1.10,2013-08-22 21:42:00,
2013-08-22 16:57:00,80.6,51.0,30.07,NNE,31,8.0,12.0,36,0.00,,,0.00,weatherlink.com 1.10,2013-08-22 21:57:00,
2013-08-22 17:12:00,80.4,53.0,30.07,NNW,341,2.0,12.0,39,0.00,,,0.00,weatherlink.com 1.10,2013-08-22 22:12:00,
2013-08-22 17:27:00,80.6,52.0,30.07,NW,322,0.0,7.0,37,0.00,,,0.00,weatherlink.com 1.10,2013-08-22 22:27:00,
2013-08-22 17:42:00,80.4,52.0,30.06,NNE,29,7.0,8.0,37,0.00,,,0.00,weatherlink.com 1.10,2013-08-22 22:42:00,
2013-08-22 17:57:00,80.2,51.0,30.07,NNE,29,5.0,6.0,36,0.00,,,0.00,weatherlink.com 1.10,2013-08-22 22:57:00,
2013-08-22 18:12:00,80.0,51.0,30.06,NE,52,4.0,5.0,36,0.00,,,0.00,weatherlink.com 1.10,2013-08-22 23:12:00,
2013-08-22 18:27:00,80.0,52.0,30.06,NNE,32,3.0,4.0,38,0.00,,,0.00,weatherlink.com 1.10,2013-08-22 23:27:00,
2013-08-22 18:42:00,79.7,53.0,30.06,NE,47,2.0,5.0,39,0.00,,,0.00,weatherlink.com 1.10,2013-08-22 23:42:00,
2013-08-22 18:57:00,79.4,53.0,30.06,NE,35,3.0,4.0,40,0.00,,,0.00,weatherlink.com 1.10,2013-08-22 23:57:00,
2013-08-22 19:13:00,78.6,55.0,30.06,NE,41,1.0,2.0,45,0.00,,,0.00,weatherlink.com 1.10,2013-08-23 00:13:00,
2013-08-22 19:28:00,77.7,55.0,30.06,NNE,32,3.0,3.0,46,0.00,,,0.00,weatherlink.com 1.10,2013-08-23 00:28:00,
2013-08-22 19:43:00,75.9,56.0,30.06,NNE,32,0.0,2.0,51,0.00,,,0.00,weatherlink.com 1.10,2013-08-23 00:43:00,
2013-08-22 19:58:00,74.4,56.0,30.06,NNE,32,0.0,1.0,52,0.00,,,0.00,weatherlink.com 1.10,2013-08-23 00:58:00,
2013-08-22 20:13:00,72.6,55.0,30.07,NNE,32,0.0,1.0,54,0.00,,,0.00,weatherlink.com 1.10,2013-08-23 01:13:00,
2013-08-22 20:28:00,71.7,56.0,30.07,ENE,67,1.0,1.0,58,0.00,,,0.00,weatherlink.com 1.10,2013-08-23 01:28:00,
2013-08-22 20:43:00,69.6,57.0,30.08,NE,46,3.0,6.0,64,0.00,,,0.00,weatherlink.com 1.10,2013-08-23 01:43:00,
2013-08-22 20:58:00,70.5,55.0,30.08,ENE,58,3.0,3.0,58,0.00,,,0.00,weatherlink.com 1.10,2013-08-23 01:58:00,
2013-08-22 21:13:00,71.6,53.0,30.09,ENE,57,3.0,5.0,53,0.00,,,0.00,weatherlink.com 1.10,2013-08-23 02:13:00,
2013-08-22 21:28:00,70.9,53.0,30.09,NE,49,4.0,6.0,53,0.00,,,0.00,weatherlink.com 1.10,2013-08-23 02:28:00,
2013-08-22 21:43:00,70.5,52.0,30.09,ENE,58,5.0,6.0,52,0.00,,,0.00,weatherlink.com 1.10,2013-08-23 02:43:00,
2013-08-22 21:58:00,70.3,52.0,30.09,ENE,58,4.0,4.0,52,0.00,,,0.00,weatherlink.com 1.10,2013-08-23 02:58:00,
2013-08-22 22:13:00,69.6,52.0,30.09,ENE,65,4.0,4.0,53,0.00,,,0.00,weatherlink.com 1.10,2013-08-23 03:13:00,
2013-08-22 22:28:00,68.9,51.0,30.10,NE,53,3.0,4.0,54,0.00,,,0.00,weatherlink.com 1.10,2013-08-23 03:28:00,
2013-08-22 22:43:00,68.6,52.0,30.09,NE,53,4.0,5.0,55,0.00,,,0.00,weatherlink.com 1.10,2013-08-23 03:43:00,
2013-08-22 22:58:00,67.1,52.0,30.09,NE,53,4.0,5.0,58,0.00,,,0.00,weatherlink.com 1.10,2013-08-23 03:58:00,
2013-08-22 23:13:00,66.8,52.0,30.10,NE,49,3.0,4.0,59,0.00,,,0.00,weatherlink.com 1.10,2013-08-23 04:13:00,
2013-08-22 23:28:00,65.9,51.0,30.10,ENE,58,4.0,6.0,60,0.00,,,0.00,weatherlink.com 1.10,2013-08-23 04:28:00,
2013-08-22 23:43:00,65.5,51.0,30.10,NE,41,4.0,4.0,60,0.00,,,0.00,weatherlink.com 1.10,2013-08-23 04:43:00,
2013-08-22 23:58:00,65.2,52.0,30.10,ENE,57,3.0,4.0,62,0.00,,,0.00,weatherlink.com 1.10,2013-08-23 04:58:00,